Tracking 29033 objects as of 22-Jun-2024
HD Live streaming from Space Station
objects crossing your sky now

STARLINK-31429

Track STARLINK-31429 now!
10-day predictions
STARLINK-31429 is classified as:


NORAD ID: 59003
Int'l Code: 2024-036F
Perigee: 485.7 km
Apogee: 487.8 km
Inclination: 53.2 °
Period: 94.2 minutes
Semi major axis: 6857 km
RCS: Unknown
Launch date: February 23, 2024
Source: United States (US)
Launch site: AIR FORCE WESTERN TEST RANGE (AFWTR)
Your satellite tracking list
Your tracking list is empty




NASA's NSSDC Master Catalog

Two Line Element Set (TLE):
1 59003U 24036F   24174.18223387  .00017209  00000-0  61895-3 0  9995
2 59003  53.1606 103.6552 0001504  80.2517 279.8653 15.28732856 19596
Source of the keplerian elements: AFSPC